Погода в Бадахосе

Испания     38°52′32″N   6°57′48″W
темп.,
°C
ветер,
м/с
пор.,
м/с
влажн.,
%
обл.,
%
осадки,
мм/ч
давл.,
гПа
погр.,
м
6 мая, чт
чт623:00+15зсз49650 0.0 1016140
02:00+12зсз238230 0.0 101741
05:00+11з22855 0.0 101727
08:00+11з228316 0.0 101823
11:00+18зюз22565 0.0 1018443
14:00+24з33365 0.0 10171206
17:00+25з55315 0.0 10161477
20:00+23з58425 0.0 1016375
7 мая, пт
пт723:00+16зсз59654 0.0 1018175
02:00+12з35900 0.0 101993
05:00+10з22911 0.0 101822
08:00+11з11880 0.0 101913
11:00+18ююз01580 0.0 1019441
14:00+24юз11360 0.0 10181037
17:00+26з32299 0.0 10161516
20:00+24з354155 0.0 1015236
8 мая, сб
сб823:00+17зсз466030 0.0 101687
02:00+14зсз226644 0.0 101629
05:00+13з1267100 0.0 101513
08:00+13з1164100 0.0 101511
11:00+19ююз1146100 0.0 1014346
14:00+25юз3534100 0.0 10121445
17:00+27юз562745 0.0 10092135
20:00+24з58380 0.0 1008464
9 мая, вс
вс923:00+16з512500 0.0 1009305
02:00+12зюз4974100 0.0 1011204
05:00+11ююз41191100 0.0 1009360
08:00+13ююз5138485 0.0 1008599
11:00+14ююз698683 4.1 1009602
14:00+19з785253 4.4 10081795
17:00+20зюз61044100 0.4 10082502
20:00+18зсз78525 0.4 10091401
10 мая, пн
пн1023:00+12з410713 0.0 1012237
02:00+9з37880 0.0 1013156
05:00+8зюз35945 0.0 1012113
08:00+8зюз23932 0.0 101388
11:00+15юз576351 0.6 10131209
14:00+16з7952100 1.4 10121986
17:00+17з8114490 0.3 10122264
20:00+15зсз710558 0.3 10131649